iso_date,epoch_date,Year,Hour,Min,DOY,POS_DOY,Lat,Lon,BP,Ts,Ta,has_bp,has_ts,has_ta,BuoyID,Buoy_Type,Buoy_Owner,Logistics,Hemisphere
2011-10-12T00:00:00Z,1318377600,2011,0,0,285.0,285.0,76.6906,-162.4746,1018.4,-1.0,-999.0,yes,yes,no,300234010136040,unknown,unknown,unknown,North
2011-10-12T01:00:28Z,1318381229,2011,1,0,285.042,285.0,76.6906,-162.4746,1018.1,-1.1,-999.0,yes,yes,no,300234010136040,unknown,unknown,unknown,North
2011-10-12T01:59:31Z,1318384771,2011,2,0,285.083,285.0,76.6906,-162.4746,1018.1,-1.1,-999.0,yes,yes,no,300234010136040,unknown,unknown,unknown,North
2011-10-12T03:00:00Z,1318388400,2011,3,0,285.125,285.125,76.7172,-162.42,1018.0,-1.3,-999.0,yes,yes,no,300234010136040,unknown,unknown,unknown,North
2011-10-12T04:00:28Z,1318392029,2011,4,0,285.167,285.125,76.7172,-162.42,1018.0,-1.4,-999.0,yes,yes,no,300234010136040,unknown,unknown,unknown,North
2011-10-12T04:59:31Z,1318395571,2011,5,0,285.208,285.125,76.7172,-162.42,1017.8,-1.5,-999.0,yes,yes,no,300234010136040,unknown,unknown,unknown,North
2011-10-12T06:00:00Z,1318399200,2011,6,0,285.25,285.25,76.7292,-162.4228,1017.8,-1.6,-999.0,yes,yes,no,300234010136040,unknown,unknown,unknown,North
2011-10-12T07:00:28Z,1318402829,2011,7,0,285.292,285.25,76.7292,-162.4228,1017.8,-1.6,-999.0,yes,yes,no,300234010136040,unknown,unknown,unknown,North
2011-10-12T07:59:31Z,1318406371,2011,8,0,285.333,285.25,76.7292,-162.4228,1017.9,-1.6,-999.0,yes,yes,no,300234010136040,unknown,unknown,unknown,North
2011-10-12T09:00:00Z,1318410000,2011,9,0,285.375,285.375,76.7428,-162.4934,1018.0,-1.5,-999.0,yes,yes,no,300234010136040,unknown,unknown,unknown,North
2011-10-12T10:00:28Z,1318413629,2011,10,0,285.417,285.375,76.7428,-162.4934,1018.1,-1.4,-999.0,yes,yes,no,300234010136040,unknown,unknown,unknown,North
2011-10-12T10:59:31Z,1318417171,2011,11,0,285.458,285.375,76.7428,-162.4934,1018.0,-1.4,-999.0,yes,yes,no,300234010136040,unknown,unknown,unknown,North
2011-10-12T12:00:00Z,1318420800,2011,12,0,285.5,285.5,76.7764,-162.52,1017.8,-1.4,-999.0,yes,yes,no,300234010136040,unknown,unknown,unknown,North
2011-10-12T13:00:28Z,1318424429,2011,13,0,285.542,285.5,76.7764,-162.52,1017.5,-1.5,-999.0,yes,yes,no,300234010136040,unknown,unknown,unknown,North
2011-10-12T13:59:31Z,1318427971,2011,14,0,285.583,285.5,76.7764,-162.52,1020.0,-1.1,-999.0,yes,yes,no,300234010136040,unknown,unknown,unknown,North
2011-10-12T15:00:00Z,1318431600,2011,15,0,285.625,285.625,76.8146,-162.5066,1018.1,-1.4,-999.0,yes,yes,no,300234010136040,unknown,unknown,unknown,North
2011-10-12T16:00:28Z,1318435229,2011,16,0,285.667,285.625,76.8146,-162.5066,1018.7,-0.9,-999.0,yes,yes,no,300234010136040,unknown,unknown,unknown,North
2011-10-12T16:59:31Z,1318438771,2011,17,0,285.708,285.625,76.8146,-162.5066,1018.5,-0.9,-999.0,yes,yes,no,300234010136040,unknown,unknown,unknown,North
2011-10-12T18:00:00Z,1318442400,2011,18,0,285.75,285.75,76.8396,-162.5256,1017.8,-1.0,-999.0,yes,yes,no,300234010136040,unknown,unknown,unknown,North
2011-10-12T19:00:28Z,1318446029,2011,19,0,285.792,285.75,76.8396,-162.5256,1017.1,-1.2,-999.0,yes,yes,no,300234010136040,unknown,unknown,unknown,North
2011-10-12T19:59:31Z,1318449571,2011,20,0,285.833,285.75,76.8396,-162.5256,1017.1,-1.1,-999.0,yes,yes,no,300234010136040,unknown,unknown,unknown,North
2011-10-12T21:00:00Z,1318453200,2011,21,0,285.875,285.875,76.8628,-162.6114,1017.1,-1.1,-999.0,yes,yes,no,300234010136040,unknown,unknown,unknown,North
2011-10-12T22:00:28Z,1318456829,2011,22,0,285.917,285.875,76.8628,-162.6114,1017.1,-1.1,-999.0,yes,yes,no,300234010136040,unknown,unknown,unknown,North
2011-10-12T22:59:31Z,1318460371,2011,23,0,285.958,285.875,76.8628,-162.6114,1017.1,-1.1,-999.0,yes,yes,no,300234010136040,unknown,unknown,unknown,North
2011-10-13T00:00:00Z,1318464000,2011,0,0,286.0,286.0,76.9076,-162.7046,1016.7,-1.2,-999.0,yes,yes,no,300234010136040,unknown,unknown,unknown,North
2011-10-13T01:00:28Z,1318467629,2011,1,0,286.042,286.0,76.9076,-162.7046,1016.6,-1.2,-999.0,yes,yes,no,300234010136040,unknown,unknown,unknown,North
2011-10-13T01:59:31Z,1318471171,2011,2,0,286.083,286.0,76.9076,-162.7046,1016.3,-1.3,-999.0,yes,yes,no,300234010136040,unknown,unknown,unknown,North
2011-10-13T03:00:00Z,1318474800,2011,3,0,286.125,286.125,76.9562,-162.7054,1016.3,-1.3,-999.0,yes,yes,no,300234010136040,unknown,unknown,unknown,North
2011-10-13T04:00:28Z,1318478429,2011,4,0,286.167,286.125,76.9562,-162.7054,1016.2,-1.3,-999.0,yes,yes,no,300234010136040,unknown,unknown,unknown,North
2011-10-13T04:59:31Z,1318481971,2011,5,0,286.208,286.125,76.9562,-162.7054,1016.0,-1.4,-999.0,yes,yes,no,300234010136040,unknown,unknown,unknown,North
2011-10-13T06:00:00Z,1318485600,2011,6,0,286.25,286.25,76.9852,-162.7228,1016.0,-1.5,-999.0,yes,yes,no,300234010136040,unknown,unknown,unknown,North
2011-10-13T07:00:28Z,1318489229,2011,7,0,286.292,286.25,76.9852,-162.7228,1016.3,-1.5,-999.0,yes,yes,no,300234010136040,unknown,unknown,unknown,North
2011-10-13T07:59:31Z,1318492771,2011,8,0,286.333,286.25,76.9852,-162.7228,1016.1,-1.6,-999.0,yes,yes,no,300234010136040,unknown,unknown,unknown,North
2011-10-13T09:00:00Z,1318496400,2011,9,0,286.375,286.375,77.0182,-162.8304,1016.1,-1.6,-999.0,yes,yes,no,300234010136040,unknown,unknown,unknown,North
2011-10-13T10:00:28Z,1318500029,2011,10,0,286.417,286.375,77.0182,-162.8304,1016.5,-1.7,-999.0,yes,yes,no,300234010136040,unknown,unknown,unknown,North
2011-10-13T10:59:31Z,1318503571,2011,11,0,286.458,286.375,77.0182,-162.8304,1016.4,-1.7,-999.0,yes,yes,no,300234010136040,unknown,unknown,unknown,North
2011-10-13T12:00:00Z,1318507200,2011,12,0,286.5,286.5,77.0662,-162.9224,1016.3,-1.7,-999.0,yes,yes,no,300234010136040,unknown,unknown,unknown,North
2011-10-13T13:00:28Z,1318510829,2011,13,0,286.542,286.5,77.0662,-162.9224,1016.3,-1.7,-999.0,yes,yes,no,300234010136040,unknown,unknown,unknown,North
2011-10-13T13:59:31Z,1318514371,2011,14,0,286.583,286.5,77.0662,-162.9224,1016.3,-1.7,-999.0,yes,yes,no,300234010136040,unknown,unknown,unknown,North
2011-10-13T15:00:00Z,1318518000,2011,15,0,286.625,286.625,77.1102,-162.932,1016.1,-1.7,-999.0,yes,yes,no,300234010136040,unknown,unknown,unknown,North
2011-10-13T16:00:28Z,1318521629,2011,16,0,286.667,286.625,77.1102,-162.932,1016.2,-1.8,-999.0,yes,yes,no,300234010136040,unknown,unknown,unknown,North
2011-10-13T16:59:31Z,1318525171,2011,17,0,286.708,286.625,77.1102,-162.932,1016.1,-1.8,-999.0,yes,yes,no,300234010136040,unknown,unknown,unknown,North
2011-10-13T18:00:00Z,1318528800,2011,18,0,286.75,286.75,77.137,-162.9694,1016.2,-1.8,-999.0,yes,yes,no,300234010136040,unknown,unknown,unknown,North
2011-10-13T19:00:28Z,1318532429,2011,19,0,286.792,286.75,77.137,-162.9694,1016.4,-1.9,-999.0,yes,yes,no,300234010136040,unknown,unknown,unknown,North
2011-10-13T19:59:31Z,1318535971,2011,20,0,286.833,286.75,77.137,-162.9694,1016.6,-1.9,-999.0,yes,yes,no,300234010136040,unknown,unknown,unknown,North
2011-10-13T21:00:00Z,1318539600,2011,21,0,286.875,286.875,77.1612,-163.0898,1016.8,-1.9,-999.0,yes,yes,no,300234010136040,unknown,unknown,unknown,North
2011-10-13T22:00:28Z,1318543229,2011,22,0,286.917,286.875,77.1612,-163.0898,1017.0,-1.9,-999.0,yes,yes,no,300234010136040,unknown,unknown,unknown,North
2011-10-13T22:59:31Z,1318546771,2011,23,0,286.958,286.875,77.1612,-163.0898,1017.3,-1.7,-999.0,yes,yes,no,300234010136040,unknown,unknown,unknown,North
2011-10-14T00:00:00Z,1318550400,2011,0,0,287.0,287.0,77.2062,-163.1956,1017.3,-1.7,-999.0,yes,yes,no,300234010136040,unknown,unknown,unknown,North
2011-10-14T01:00:28Z,1318554029,2011,1,0,287.042,287.0,77.2062,-163.1956,1017.2,-1.7,-999.0,yes,yes,no,300234010136040,unknown,unknown,unknown,North
2011-10-14T01:59:31Z,1318557571,2011,2,0,287.083,287.0,77.2062,-163.1956,1017.2,-1.8,-999.0,yes,yes,no,300234010136040,unknown,unknown,unknown,North
2011-10-14T03:00:00Z,1318561200,2011,3,0,287.125,287.125,77.2468,-163.2178,1017.4,-1.9,-999.0,yes,yes,no,300234010136040,unknown,unknown,unknown,North
2011-10-14T04:00:28Z,1318564829,2011,4,0,287.167,287.125,77.2468,-163.2178,1017.2,-2.0,-999.0,yes,yes,no,300234010136040,unknown,unknown,unknown,North
2011-10-14T04:59:31Z,1318568371,2011,5,0,287.208,287.125,77.2468,-163.2178,1017.3,-2.0,-999.0,yes,yes,no,300234010136040,unknown,unknown,unknown,North
2011-10-14T06:00:00Z,1318572000,2011,6,0,287.25,287.25,77.269,-163.2556,1017.2,-2.0,-999.0,yes,yes,no,300234010136040,unknown,unknown,unknown,North
2011-10-14T07:00:28Z,1318575629,2011,7,0,287.292,287.25,77.269,-163.2556,1017.4,-2.0,-999.0,yes,yes,no,300234010136040,unknown,unknown,unknown,North
2011-10-14T07:59:31Z,1318579171,2011,8,0,287.333,287.25,77.269,-163.2556,1017.6,-2.1,-999.0,yes,yes,no,300234010136040,unknown,unknown,unknown,North
2011-10-14T09:00:00Z,1318582800,2011,9,0,287.375,287.375,77.305,-163.4128,1017.9,-2.2,-999.0,yes,yes,no,300234010136040,unknown,unknown,unknown,North
2011-10-14T10:00:28Z,1318586429,2011,10,0,287.417,287.375,77.305,-163.4128,1018.2,-2.1,-999.0,yes,yes,no,300234010136040,unknown,unknown,unknown,North
2011-10-14T10:59:31Z,1318589971,2011,11,0,287.458,287.375,77.305,-163.4128,1018.2,-2.2,-999.0,yes,yes,no,300234010136040,unknown,unknown,unknown,North
2011-10-14T12:00:00Z,1318593600,2011,12,0,287.5,287.5,77.3616,-163.5152,1018.5,-2.2,-999.0,yes,yes,no,300234010136040,unknown,unknown,unknown,North
2011-10-14T13:00:28Z,1318597229,2011,13,0,287.542,287.5,77.3616,-163.5152,1018.5,-2.3,-999.0,yes,yes,no,300234010136040,unknown,unknown,unknown,North
2011-10-14T13:59:31Z,1318600771,2011,14,0,287.583,287.5,77.3616,-163.5152,1018.5,-2.3,-999.0,yes,yes,no,300234010136040,unknown,unknown,unknown,North
2011-10-14T15:00:00Z,1318604400,2011,15,0,287.625,287.625,77.4074,-163.5566,1018.2,-2.4,-999.0,yes,yes,no,300234010136040,unknown,unknown,unknown,North
2011-10-14T16:00:28Z,1318608029,2011,16,0,287.667,287.625,77.4074,-163.5566,1018.2,-2.4,-999.0,yes,yes,no,300234010136040,unknown,unknown,unknown,North
2011-10-14T16:59:31Z,1318611571,2011,17,0,287.708,287.625,77.4074,-163.5566,1018.3,-2.3,-999.0,yes,yes,no,300234010136040,unknown,unknown,unknown,North
2011-10-14T18:00:00Z,1318615200,2011,18,0,287.75,287.75,77.437,-163.6404,1017.7,-2.4,-999.0,yes,yes,no,300234010136040,unknown,unknown,unknown,North
2011-10-14T19:00:28Z,1318618829,2011,19,0,287.792,287.75,77.437,-163.6404,1017.6,-2.4,-999.0,yes,yes,no,300234010136040,unknown,unknown,unknown,North
2011-10-14T19:59:31Z,1318622371,2011,20,0,287.833,287.75,77.437,-163.6404,1017.9,-2.4,-999.0,yes,yes,no,300234010136040,unknown,unknown,unknown,North
2011-10-14T21:00:00Z,1318626000,2011,21,0,287.875,287.875,77.4768,-163.7994,1018.2,-2.4,-999.0,yes,yes,no,300234010136040,unknown,unknown,unknown,North
2011-10-14T22:00:28Z,1318629629,2011,22,0,287.917,287.875,77.4768,-163.7994,1018.1,-2.5,-999.0,yes,yes,no,300234010136040,unknown,unknown,unknown,North
2011-10-14T22:59:31Z,1318633171,2011,23,0,287.958,287.875,77.4768,-163.7994,1018.2,-2.4,-999.0,yes,yes,no,300234010136040,unknown,unknown,unknown,North
2011-10-15T00:00:00Z,1318636800,2011,0,0,288.0,288.0,77.5258,-163.9486,1018.3,-2.5,-999.0,yes,yes,no,300234010136040,unknown,unknown,unknown,North
2011-10-15T01:00:28Z,1318640429,2011,1,0,288.042,288.0,77.5258,-163.9486,1018.1,-2.6,-999.0,yes,yes,no,300234010136040,unknown,unknown,unknown,North
2011-10-15T01:59:31Z,1318643971,2011,2,0,288.083,288.0,77.5258,-163.9486,1017.9,-2.6,-999.0,yes,yes,no,300234010136040,unknown,unknown,unknown,North
2011-10-15T03:00:00Z,1318647600,2011,3,0,288.125,288.125,77.5572,-163.9816,1017.6,-2.8,-999.0,yes,yes,no,300234010136040,unknown,unknown,unknown,North
2011-10-15T04:00:28Z,1318651229,2011,4,0,288.167,288.125,77.5572,-163.9816,1017.2,-3.0,-999.0,yes,yes,no,300234010136040,unknown,unknown,unknown,North
2011-10-15T04:59:31Z,1318654771,2011,5,0,288.208,288.125,77.5572,-163.9816,1016.6,-3.1,-999.0,yes,yes,no,300234010136040,unknown,unknown,unknown,North
2011-10-15T06:00:00Z,1318658400,2011,6,0,288.25,288.25,77.5692,-164.047,1016.2,-3.4,-999.0,yes,yes,no,300234010136040,unknown,unknown,unknown,North
2011-10-15T07:00:28Z,1318662029,2011,7,0,288.292,288.25,77.5692,-164.047,1015.5,-3.6,-999.0,yes,yes,no,300234010136040,unknown,unknown,unknown,North
2011-10-15T07:59:31Z,1318665571,2011,8,0,288.333,288.25,77.5692,-164.047,1015.2,-3.7,-999.0,yes,yes,no,300234010136040,unknown,unknown,unknown,North
2011-10-15T09:00:00Z,1318669200,2011,9,0,288.375,288.375,77.5956,-164.2198,1014.7,-3.9,-999.0,yes,yes,no,300234010136040,unknown,unknown,unknown,North
2011-10-15T10:00:28Z,1318672829,2011,10,0,288.417,288.375,77.5956,-164.2198,1014.3,-4.0,-999.0,yes,yes,no,300234010136040,unknown,unknown,unknown,North
2011-10-15T10:59:31Z,1318676371,2011,11,0,288.458,288.375,77.5956,-164.2198,1014.1,-4.1,-999.0,yes,yes,no,300234010136040,unknown,unknown,unknown,North
2011-10-15T12:00:00Z,1318680000,2011,12,0,288.5,288.5,77.6442,-164.3178,1013.6,-4.3,-999.0,yes,yes,no,300234010136040,unknown,unknown,unknown,North
2011-10-15T13:00:28Z,1318683629,2011,13,0,288.542,288.5,77.6442,-164.3178,1013.2,-4.4,-999.0,yes,yes,no,300234010136040,unknown,unknown,unknown,North
2011-10-15T13:59:31Z,1318687171,2011,14,0,288.583,288.5,77.6442,-164.3178,1013.1,-4.4,-999.0,yes,yes,no,300234010136040,unknown,unknown,unknown,North
2011-10-15T15:00:00Z,1318690800,2011,15,0,288.625,288.625,77.6796,-164.3002,1013.1,-4.3,-999.0,yes,yes,no,300234010136040,unknown,unknown,unknown,North
2011-10-15T16:00:28Z,1318694429,2011,16,0,288.667,288.625,77.6796,-164.3002,1013.5,-4.2,-999.0,yes,yes,no,300234010136040,unknown,unknown,unknown,North
2011-10-15T16:59:31Z,1318697971,2011,17,0,288.708,288.625,77.6796,-164.3002,1013.9,-4.0,-999.0,yes,yes,no,300234010136040,unknown,unknown,unknown,North
2011-10-15T18:00:00Z,1318701600,2011,18,0,288.75,288.75,77.6966,-164.2946,1014.2,-3.9,-999.0,yes,yes,no,300234010136040,unknown,unknown,unknown,North
2011-10-15T19:00:28Z,1318705229,2011,19,0,288.792,288.75,77.6966,-164.2946,1014.2,-3.9,-999.0,yes,yes,no,300234010136040,unknown,unknown,unknown,North
2011-10-15T19:59:31Z,1318708771,2011,20,0,288.833,288.75,77.6966,-164.2946,1014.3,-3.8,-999.0,yes,yes,no,300234010136040,unknown,unknown,unknown,North
2011-10-15T21:00:00Z,1318712400,2011,21,0,288.875,288.875,77.7176,-164.3884,1014.2,-3.8,-999.0,yes,yes,no,300234010136040,unknown,unknown,unknown,North
2011-10-15T22:00:28Z,1318716029,2011,22,0,288.917,288.875,77.7176,-164.3884,1014.1,-3.6,-999.0,yes,yes,no,300234010136040,unknown,unknown,unknown,North
2011-10-15T22:59:31Z,1318719571,2011,23,0,288.958,288.875,77.7176,-164.3884,1013.8,-3.7,-999.0,yes,yes,no,300234010136040,unknown,unknown,unknown,North
2011-10-16T00:00:00Z,1318723200,2011,0,0,289.0,289.0,77.748,-164.4112,1013.7,-3.7,-999.0,yes,yes,no,300234010136040,unknown,unknown,unknown,North
2011-10-16T01:00:28Z,1318726829,2011,1,0,289.042,289.0,77.748,-164.4112,1012.5,-4.0,-999.0,yes,yes,no,300234010136040,unknown,unknown,unknown,North
2011-10-16T01:59:31Z,1318730371,2011,2,0,289.083,289.0,77.748,-164.4112,1011.0,-4.5,-999.0,yes,yes,no,300234010136040,unknown,unknown,unknown,North
2011-10-16T03:00:00Z,1318734000,2011,3,0,289.125,289.125,77.7626,-164.403,1009.6,-4.9,-999.0,yes,yes,no,300234010136040,unknown,unknown,unknown,North
2011-10-16T04:00:28Z,1318737629,2011,4,0,289.167,289.125,77.7626,-164.403,1009.0,-5.2,-999.0,yes,yes,no,300234010136040,unknown,unknown,unknown,North
2011-10-16T04:59:31Z,1318741171,2011,5,0,289.208,289.125,77.7626,-164.403,1008.5,-5.4,-999.0,yes,yes,no,300234010136040,unknown,unknown,unknown,North
2011-10-16T06:00:00Z,1318744800,2011,6,0,289.25,289.25,77.783,-164.4416,1010.4,-5.5,-999.0,yes,yes,no,300234010136040,unknown,unknown,unknown,North
2011-10-16T07:00:28Z,1318748429,2011,7,0,289.292,289.25,77.783,-164.4416,1017.0,-5.5,-999.0,yes,yes,no,300234010136040,unknown,unknown,unknown,North
2011-10-16T07:59:31Z,1318751971,2011,8,0,289.333,289.25,77.783,-164.4416,1018.9,-3.0,-999.0,yes,yes,no,300234010136040,unknown,unknown,unknown,North
2011-10-16T09:00:00Z,1318755600,2011,9,0,289.375,289.375,77.8088,-164.5162,1019.6,-2.6,-999.0,yes,yes,no,300234010136040,unknown,unknown,unknown,North
2011-10-16T10:00:28Z,1318759229,2011,10,0,289.417,289.375,77.8088,-164.5162,1020.0,-2.5,-999.0,yes,yes,no,300234010136040,unknown,unknown,unknown,North
2011-10-16T10:59:31Z,1318762771,2011,11,0,289.458,289.375,77.8088,-164.5162,1020.1,-2.5,-999.0,yes,yes,no,300234010136040,unknown,unknown,unknown,North
2011-10-16T12:00:00Z,1318766400,2011,12,0,289.5,289.5,77.8324,-164.5432,1020.2,-2.5,-999.0,yes,yes,no,300234010136040,unknown,unknown,unknown,North
2011-10-16T13:00:28Z,1318770029,2011,13,0,289.542,289.5,77.8324,-164.5432,1020.3,-2.6,-999.0,yes,yes,no,300234010136040,unknown,unknown,unknown,North
2011-10-16T13:59:31Z,1318773571,2011,14,0,289.583,289.5,77.8324,-164.5432,1020.4,-2.6,-999.0,yes,yes,no,300234010136040,unknown,unknown,unknown,North
2011-10-18T06:00:00Z,1318917600,2011,6,0,291.25,291.25,78.115,-164.9476,1014.9,-5.5,-999.0,yes,yes,no,300234010136040,unknown,unknown,unknown,North
2011-10-18T10:59:31Z,1318935571,2011,11,0,291.458,291.25,78.115,-164.9476,1013.5,-5.1,-999.0,yes,yes,no,300234010136040,unknown,unknown,unknown,North
2011-10-18T16:00:28Z,1318953629,2011,16,0,291.667,291.5,78.1948,-165.1584,1012.8,-4.9,-999.0,yes,yes,no,300234010136040,unknown,unknown,unknown,North
2011-10-19T00:00:00Z,1318982400,2011,0,0,292.0,292.0,78.2802,-165.3042,1012.4,-4.9,-999.0,yes,yes,no,300234010136040,unknown,unknown,unknown,North
2011-10-19T10:00:28Z,1319018429,2011,10,0,292.417,292.25,78.303,-165.3158,1012.0,-5.1,-999.0,yes,yes,no,300234010136040,unknown,unknown,unknown,North
2011-10-19T10:59:31Z,1319021971,2011,11,0,292.458,292.25,78.303,-165.3158,1011.9,-5.1,-999.0,yes,yes,no,300234010136040,unknown,unknown,unknown,North
2011-10-20T10:59:31Z,1319108371,2011,11,0,293.458,293.375,78.4122,-165.6874,1009.5,-5.5,-999.0,yes,yes,no,300234010136040,unknown,unknown,unknown,North
2011-10-20T12:00:00Z,1319112000,2011,12,0,293.5,293.5,78.423,-165.7266,1009.4,-5.4,-999.0,yes,yes,no,300234010136040,unknown,unknown,unknown,North
2011-10-21T10:59:31Z,1319194771,2011,11,0,294.458,294.375,78.4498,-166.0798,1007.7,-5.1,-999.0,yes,yes,no,300234010136040,unknown,unknown,unknown,North
2011-10-21T12:00:00Z,1319198400,2011,12,0,294.5,294.5,78.4596,-166.1642,1007.5,-5.2,-999.0,yes,yes,no,300234010136040,unknown,unknown,unknown,North
2011-10-21T16:00:28Z,1319212829,2011,16,0,294.667,294.5,78.4596,-166.1642,1007.0,-5.2,-999.0,yes,yes,no,300234010136040,unknown,unknown,unknown,North
2011-10-21T19:59:31Z,1319227171,2011,20,0,294.833,294.75,78.4678,-166.2964,1006.5,-5.2,-999.0,yes,yes,no,300234010136040,unknown,unknown,unknown,North
2011-10-22T00:00:00Z,1319241600,2011,0,0,295.0,295.0,78.4842,-166.4606,1006.6,-5.0,-999.0,yes,yes,no,300234010136040,unknown,unknown,unknown,North
2011-10-22T10:00:28Z,1319277629,2011,10,0,295.417,295.375,78.4814,-166.6152,1004.8,-5.7,-999.0,yes,yes,no,300234010136040,unknown,unknown,unknown,North
2011-10-23T07:00:28Z,1319353229,2011,7,0,296.292,296.25,78.4446,-166.7888,1004.6,-5.5,-999.0,yes,yes,no,300234010136040,unknown,unknown,unknown,North
2011-10-23T10:59:31Z,1319367571,2011,11,0,296.458,296.375,78.4376,-166.8164,1004.8,-5.4,-999.0,yes,yes,no,300234010136040,unknown,unknown,unknown,North
2011-10-23T19:59:31Z,1319399971,2011,20,0,296.833,296.75,78.419,-166.7962,1003.0,-6.1,-999.0,yes,yes,no,300234010136040,unknown,unknown,unknown,North
2011-10-23T22:59:31Z,1319410771,2011,23,0,296.958,296.875,78.4024,-166.8106,1002.6,-6.1,-999.0,yes,yes,no,300234010136040,unknown,unknown,unknown,North
2011-10-24T00:00:00Z,1319414400,2011,0,0,297.0,297.0,78.3938,-166.8028,1002.4,-6.1,-999.0,yes,yes,no,300234010136040,unknown,unknown,unknown,North
2011-10-24T16:59:31Z,1319475571,2011,17,0,297.708,297.625,78.3558,-166.7974,1000.0,-6.8,-999.0,yes,yes,no,300234010136040,unknown,unknown,unknown,North
2011-10-25T00:00:00Z,1319500800,2011,0,0,298.0,298.0,78.3298,-166.7832,1000.1,-6.7,-999.0,yes,yes,no,300234010136040,unknown,unknown,unknown,North
2011-10-25T21:00:00Z,1319576400,2011,21,0,298.875,298.875,78.2424,-166.6682,1000.8,-6.0,-999.0,yes,yes,no,300234010136040,unknown,unknown,unknown,North
2011-10-25T22:59:31Z,1319583571,2011,23,0,298.958,298.875,78.2424,-166.6682,1001.2,-5.8,-999.0,yes,yes,no,300234010136040,unknown,unknown,unknown,North
2011-10-26T00:00:00Z,1319587200,2011,0,0,299.0,298.875,78.2424,-166.6682,1001.4,-5.8,-999.0,yes,yes,no,300234010136040,unknown,unknown,unknown,North
2011-10-26T09:00:00Z,1319619600,2011,9,0,299.375,299.375,78.1874,-166.7296,1002.7,-5.5,-999.0,yes,yes,no,300234010136040,unknown,unknown,unknown,North
2011-10-26T10:00:28Z,1319623229,2011,10,0,299.417,299.375,78.1874,-166.7296,1002.8,-5.5,-999.0,yes,yes,no,300234010136040,unknown,unknown,unknown,North
2011-10-26T19:00:28Z,1319655629,2011,19,0,299.792,299.75,78.1788,-166.6784,1002.9,-5.7,-999.0,yes,yes,no,300234010136040,unknown,unknown,unknown,North
2011-10-26T22:59:31Z,1319669971,2011,23,0,299.958,299.875,78.1714,-166.6726,1002.9,-5.5,-999.0,yes,yes,no,300234010136040,unknown,unknown,unknown,North
2011-10-27T00:00:00Z,1319673600,2011,0,0,300.0,300.0,78.1672,-166.6486,1002.9,-5.4,-999.0,yes,yes,no,300234010136040,unknown,unknown,unknown,North
2011-10-27T01:00:28Z,1319677229,2011,1,0,300.042,300.0,78.1672,-166.6486,1003.0,-5.3,-999.0,yes,yes,no,300234010136040,unknown,unknown,unknown,North
2011-10-27T01:59:31Z,1319680771,2011,2,0,300.083,300.0,78.1672,-166.6486,1003.1,-5.3,-999.0,yes,yes,no,300234010136040,unknown,unknown,unknown,North
2011-10-27T10:00:28Z,1319709629,2011,10,0,300.417,300.375,78.1172,-166.4518,1003.4,-5.0,-999.0,yes,yes,no,300234010136040,unknown,unknown,unknown,North
2011-10-27T13:59:31Z,1319723971,2011,14,0,300.583,300.5,78.0964,-166.3376,1003.4,-4.9,-999.0,yes,yes,no,300234010136040,unknown,unknown,unknown,North
2011-10-28T10:00:28Z,1319796029,2011,10,0,301.417,301.375,77.9656,-165.9942,999.9,-6.8,-999.0,yes,yes,no,300234010136040,unknown,unknown,unknown,North
2011-10-28T10:59:31Z,1319799571,2011,11,0,301.458,301.375,77.9656,-165.9942,999.6,-6.8,-999.0,yes,yes,no,300234010136040,unknown,unknown,unknown,North
2011-10-28T12:00:00Z,1319803200,2011,12,0,301.5,301.5,77.9582,-165.9932,999.4,-6.9,-999.0,yes,yes,no,300234010136040,unknown,unknown,unknown,North
2011-10-28T13:59:31Z,1319810371,2011,14,0,301.583,301.5,77.9582,-165.9932,998.9,-7.0,-999.0,yes,yes,no,300234010136040,unknown,unknown,unknown,North
2011-10-29T00:00:00Z,1319846400,2011,0,0,302.0,302.0,77.939,-165.9476,997.1,-7.7,-999.0,yes,yes,no,300234010136040,unknown,unknown,unknown,North
2011-10-29T09:00:00Z,1319878800,2011,9,0,302.375,302.375,77.9324,-165.8472,994.8,-8.3,-999.0,yes,yes,no,300234010136040,unknown,unknown,unknown,North
2011-10-29T10:00:28Z,1319882429,2011,10,0,302.417,302.375,77.9324,-165.8472,994.8,-8.2,-999.0,yes,yes,no,300234010136040,unknown,unknown,unknown,North
2011-10-29T10:59:31Z,1319885971,2011,11,0,302.458,302.375,77.9324,-165.8472,994.7,-8.1,-999.0,yes,yes,no,300234010136040,unknown,unknown,unknown,North
2011-10-29T16:59:31Z,1319907571,2011,17,0,302.708,302.625,77.9312,-165.6172,993.6,-8.0,-999.0,yes,yes,no,300234010136040,unknown,unknown,unknown,North
2011-10-29T19:59:31Z,1319918371,2011,20,0,302.833,302.75,77.9376,-165.4242,993.2,-7.6,-999.0,yes,yes,no,300234010136040,unknown,unknown,unknown,North
2011-10-29T21:00:00Z,1319922000,2011,21,0,302.875,302.875,77.9414,-165.2222,993.3,-7.5,-999.0,yes,yes,no,300234010136040,unknown,unknown,unknown,North
2011-10-29T22:00:28Z,1319925629,2011,22,0,302.917,302.875,77.9414,-165.2222,993.4,-7.3,-999.0,yes,yes,no,300234010136040,unknown,unknown,unknown,North
2011-10-29T22:59:31Z,1319929171,2011,23,0,302.958,302.875,77.9414,-165.2222,993.8,-7.2,-999.0,yes,yes,no,300234010136040,unknown,unknown,unknown,North
2011-10-30T01:00:28Z,1319936429,2011,1,0,303.042,303.0,77.9472,-165.048,994.6,-6.9,-999.0,yes,yes,no,300234010136040,unknown,unknown,unknown,North
2011-10-30T12:00:00Z,1319976000,2011,12,0,303.5,303.5,77.9178,-164.7856,995.8,-6.5,-999.0,yes,yes,no,300234010136040,unknown,unknown,unknown,North